| time (UTC) | temp F | wind direction | speed MPH | gust MPH | rain 1hr in | rain 24hr in | rain mn in | humidity % | barometer mb |
| 20260505024504 | 69 | 288 | 3.0 | 8.0 | 0.00 | 0.00 | 0.00 | 42 | 1001.4 |
| 20260505023004 | 69 | 288 | 3.0 | 7.0 | 0.00 | 0.00 | 0.00 | 43 | 1001.3 |
| 20260505021504 | 70 | 288 | 3.0 | 8.0 | 0.00 | 0.00 | 0.00 | 43 | 1001.4 |
| 20260505020003 | 71 | 287 | 5.0 | 10.0 | 0.00 | 0.00 | 0.00 | 42 | 1001.5 |
| 20260505014503 | 73 | 284 | 5.0 | 10.0 | 0.00 | 0.00 | 0.00 | 40 | 1001.1 |
| 20260505013001 | 74 | 252 | 6.0 | 12.0 | 0.00 | 0.00 | 0.00 | 36 | 1000.7 |
| 20260505011601 | 75 | 281 | 5.0 | 14.0 | 0.00 | 0.00 | 0.00 | 34 | 1000.4 |
| 20260505010103 | 77 | 277 | 5.0 | 10.0 | 0.00 | 0.00 | 0.00 | 30 | 1000.7 |
| 20260505004557 | 79 | 271 | 2.0 | 11.0 | 0.00 | 0.00 | 0.00 | 28 | 1000.9 |
| 20260505003101 | 80 | 233 | 3.0 | 8.0 | 0.00 | 0.00 | 0.00 | 26 | 1001.3 |
| 20260505001558 | 81 | 209 | 1.0 | 8.0 | 0.00 | 0.00 | 0.00 | 25 | 1001.1 |
| 20260505000058 | 82 | 120 | 2.0 | 6.0 | 0.00 | 0.00 | 0.00 | 24 | 1000.9 |
| 20260504234552 | 83 | 114 | 3.0 | 8.0 | 0.00 | 0.00 | 0.00 | 23 | 1001.1 |
| 20260504233054 | 83 | 121 | 4.0 | 12.0 | 0.00 | 0.00 | 0.00 | 21 | 1001.3 |
| 20260504231552 | 84 | 279 | 1.0 | 4.0 | 0.00 | 0.00 | 0.00 | 20 | 1001.2 |
| 20260504230051 | 85 | 279 | 1.0 | 5.0 | 0.00 | 0.00 | 0.00 | 20 | 1001.1 |
| 20260504224550 | 85 | 279 | 0.0 | 5.0 | 0.00 | 0.00 | 0.00 | 21 | 1001.1 |
| 20260504223101 | 86 | 279 | 1.0 | 3.0 | 0.00 | 0.00 | 0.00 | 18 | 1001.2 |
| 20260504221548 | 85 | 279 | 2.0 | 9.0 | 0.00 | 0.00 | 0.00 | 20 | 1001.4 |
| 20260504220047 | 84 | 285 | 5.0 | 8.0 | 0.00 | 0.00 | 0.00 | 21 | 1001.3 |
| 20260504214547 | 85 | 284 | 2.0 | 11.0 | 0.00 | 0.00 | 0.00 | 20 | 1001.3 |
| 20260504213046 | 87 | 288 | 5.0 | 11.0 | 0.00 | 0.00 | 0.00 | 17 | 1001.5 |
| 20260504211620 | 88 | 284 | 6.0 | 13.0 | 0.00 | 0.00 | 0.00 | 17 | 1001.5 |
| 20260504210046 | 89 | 277 | 5.0 | 12.0 | 0.00 | 0.00 | 0.00 | 16 | 1001.8 |
| 20260504204542 | 89 | 283 | 1.0 | 8.0 | 0.00 | 0.00 | 0.00 | 16 | 1001.9 |
| 20260504203039 | 90 | 288 | 3.0 | 10.0 | 0.00 | 0.00 | 0.00 | 16 | 1002.0 |
| 20260504201538 | 89 | 283 | 3.0 | 13.0 | 0.00 | 0.00 | 0.00 | 18 | 1002.4 |
| 20260504200035 | 89 | 284 | 1.0 | 7.0 | 0.00 | 0.00 | 0.00 | 18 | 1002.7 |
| 20260504194534 | 89 | 284 | 3.0 | 9.0 | 0.00 | 0.00 | 0.00 | 18 | 1002.9 |
| 20260504193035 | 90 | 275 | 2.0 | 11.0 | 0.00 | 0.00 | 0.00 | 18 | 1003.0 |
| 20260504191534 | 88 | 277 | 2.0 | 12.0 | 0.00 | 0.00 | 0.00 | 20 | 1003.3 |
| 20260504190027 | 88 | 298 | 2.0 | 13.0 | 0.00 | 0.00 | 0.00 | 19 | 1003.7 |
| 20260504184536 | 88 | 293 | 2.0 | 10.0 | 0.00 | 0.00 | 0.00 | 20 | 1003.8 |
| 20260504183023 | 87 | 243 | 1.0 | 7.0 | 0.00 | 0.00 | 0.00 | 20 | 1004.0 |
| 20260504181522 | 88 | 213 | 0.0 | 6.0 | 0.00 | 0.00 | 0.00 | 19 | 1004.1 |
| 20260504180021 | 88 | 210 | 1.0 | 5.0 | 0.00 | 0.00 | 0.00 | 17 | 1004.3 |
| 20260504174518 | 88 | 208 | 1.0 | 6.0 | 0.00 | 0.00 | 0.00 | 13 | 1004.5 |
| 20260504173016 | 89 | 207 | 1.0 | 3.0 | 0.00 | 0.00 | 0.00 | 13 | 1004.7 |
| 20260504171514 | 88 | 207 | 1.0 | 5.0 | 0.00 | 0.00 | 0.00 | 15 | 1004.6 |
| 20260504081537 | 53 | 360 | 0.0 | 2.0 | 0.00 | 0.00 | 0.00 | 48 | 1006.4 |
| 20260504050107 | 56 | 360 | 0.0 | 3.0 | 0.00 | 0.00 | 0.00 | 42 | 1007.5 |
| 20260504044606 | 59 | 360 | 1.0 | 3.0 | 0.00 | 0.00 | 0.00 | 38 | 1007.7 |
| 20260504043004 | 63 | 360 | 1.0 | 4.0 | 0.00 | 0.00 | 0.00 | 33 | 1007.8 |
| 20260504041501 | 64 | 360 | 1.0 | 6.0 | 0.00 | 0.00 | 0.00 | 31 | 1007.6 |
| 20260504040132 | 65 | 360 | 3.0 | 8.0 | 0.00 | 0.00 | 0.00 | 29 | 1007.5 |
| 20260504034603 | 65 | 355 | 3.0 | 9.0 | 0.00 | 0.00 | 0.00 | 29 | 1007.6 |
| 20260504033058 | 65 | 360 | 5.0 | 11.0 | 0.00 | 0.00 | 0.00 | 29 | 1007.8 |
| 20260504031614 | 66 | 355 | 5.0 | 10.0 | 0.00 | 0.00 | 0.00 | 28 | 1007.7 |
| 20260504030056 | 67 | 360 | 4.0 | 11.0 | 0.00 | 0.00 | 0.00 | 25 | 1007.5 |